Two Harbors, MN

5:43 AM CST on December 03, 2016 (GMT -0600)
Silver Bay Municipal

Weather History for KBFW - October, 2013

Change the Weather History Date:

Monday, October 7, 2013

  Actual Average Record
Temperature  
Mean Temperature 46 °F -  
Max Temperature 59 °F 54 °F 77 °F (2003)
Min Temperature 30 °F 32 °F 19 °F (2001)
Degree Days  
Heating Degree Days 19    
Moisture  
Dew Point 34 °F    
Average Humidity 68    
Maximum Humidity 93    
Minimum Humidity 31    
Precipitation  
Precipitation 0.00 in - - ()
Sea Level Pressure  
Sea Level Pressure 29.84 in    
Wind  
Wind Speed 3 mph (WNW)    
Max Wind Speed 12 mph    
Max Gust Speed 16 mph    
Visibility 10 miles    
Events      
Averages and records for this station are not official NWS values.
T = Trace of Precipitation, MM = Missing Value Source: NWS Daily Summary

Daily Weather History Graph

Daily Weather History Graph

Search for Another Location

Airport or City:

Trip Planner

Search our weather history database for the weather conditions in past years. The results will help you decide how hot, cold, wet, or windy it might be!

Date:

Astronomy

Oct. 07, 2013 Rise Set
Actual Time 7:13 AM CDT 6:32 PM CDT
Civil Twilight 6:42 AM CDT 7:03 PM CDT
Nautical Twilight 6:07 AM CDT 7:38 PM CDT
Astronomical Twilight 5:31 AM CDT 8:14 PM CDT
Moon 10:16 AM CDT (10/7) 8:04 PM CDT (10/7)
Length of Visible Light 12h 20m
Length of Day
11h 19m
Waxing Crescent, 9% of the Moon is Illuminated
Oct 7
Waxing Crescent
Oct 11
First Quarter
Oct 18
Full
Oct 26
Last Quarter
Nov 3
New

Hourly Weather History & Observations

Time (CDT) Temp. Windchill Dew Point Humidity Pressure Visibility Wind Dir Wind Speed Gust Speed Precip Events Conditions
12:13 AM 35.6 °F - 33.8 °F 93% 29.73 in 10.0 mi Calm Calm - N/A   Clear
12:33 AM 33.8 °F - 32.0 °F 93% 29.72 in 10.0 mi Calm Calm - N/A   Clear
12:53 AM 33.8 °F - 30.2 °F 87% 29.72 in 10.0 mi Calm Calm - N/A   Clear
1:13 AM 33.8 °F - 30.2 °F 87% 29.72 in 10.0 mi Calm Calm - N/A   Clear
1:33 AM 33.8 °F - 30.2 °F 87% 29.72 in 10.0 mi Calm Calm - N/A   Clear
1:53 AM 37.4 °F 33.8 °F 33.8 °F 87% 29.72 in 10.0 mi WNW 4.6 mph - N/A   Clear
2:13 AM 41.0 °F 39.0 °F 35.6 °F 81% 29.72 in 10.0 mi West 3.5 mph - N/A   Clear
2:33 AM 39.2 °F 37.0 °F 35.6 °F 87% 29.72 in 10.0 mi West 3.5 mph - N/A   Clear
2:53 AM 39.2 °F 35.0 °F 35.6 °F 87% 29.72 in 10.0 mi West 5.8 mph - N/A   Clear
3:13 AM 39.2 °F 35.0 °F 35.6 °F 87% 29.72 in 10.0 mi West 5.8 mph - N/A   Clear
3:33 AM 41.0 °F 39.0 °F 35.6 °F 81% 29.72 in 10.0 mi West 3.5 mph - N/A   Clear
3:53 AM 41.0 °F 38.0 °F 35.6 °F 81% 29.73 in 10.0 mi West 4.6 mph - N/A   Clear
4:13 AM 41.0 °F 39.0 °F 35.6 °F 81% 29.73 in 10.0 mi West 3.5 mph - N/A   Clear
4:33 AM 39.2 °F 35.9 °F 35.6 °F 87% 29.74 in 10.0 mi West 4.6 mph - N/A   Clear
4:53 AM 39.2 °F 35.9 °F 35.6 °F 87% 29.74 in 10.0 mi West 4.6 mph - N/A   Clear
5:13 AM 39.2 °F 37.0 °F 35.6 °F 87% 29.74 in 10.0 mi West 3.5 mph - N/A   Clear
5:33 AM 39.2 °F 35.9 °F 35.6 °F 87% 29.75 in 10.0 mi West 4.6 mph - N/A   Clear
5:53 AM 39.2 °F 35.9 °F 35.6 °F 87% 29.75 in 10.0 mi West 4.6 mph - N/A   Clear
6:13 AM 39.2 °F 37.0 °F 35.6 °F 87% 29.76 in 10.0 mi West 3.5 mph - N/A   Clear
6:33 AM 39.2 °F - 35.6 °F 87% 29.77 in 10.0 mi Calm Calm - N/A   Clear
6:53 AM 39.2 °F 37.0 °F 35.6 °F 87% 29.78 in 10.0 mi WNW 3.5 mph - N/A   Clear
7:13 AM 39.2 °F - 35.6 °F 87% 29.78 in 10.0 mi Calm Calm - N/A   Clear
7:33 AM 39.2 °F - 35.6 °F 87% 29.79 in 10.0 mi Calm Calm - N/A   Clear
7:53 AM 41.0 °F - 35.6 °F 81% 29.79 in 10.0 mi Calm Calm - N/A   Clear
8:13 AM 42.8 °F 40.1 °F 35.6 °F 76% 29.80 in 10.0 mi NW 4.6 mph - N/A   Clear
8:33 AM 44.6 °F 42.2 °F 37.4 °F 76% 29.80 in 10.0 mi NW 4.6 mph - N/A   Clear
8:53 AM 46.4 °F 44.3 °F 37.4 °F 71% 29.81 in 10.0 mi NW 4.6 mph - N/A   Clear
9:13 AM 46.4 °F 43.5 °F 37.4 °F 71% 29.82 in 10.0 mi NW 5.8 mph - N/A   Clear
9:33 AM 48.2 °F - 37.4 °F 66% 29.82 in 10.0 mi WNW 8.1 mph - N/A   Clear
9:53 AM 50.0 °F - 37.4 °F 62% 29.83 in 10.0 mi NW 8.1 mph - N/A   Clear
10:13 AM 50.0 °F - 37.4 °F 62% 29.84 in 10.0 mi NW 9.2 mph 16.1 mph N/A   Clear
10:33 AM 51.8 °F - 37.4 °F 58% 29.84 in 10.0 mi NW 9.2 mph - N/A   Clear
10:53 AM 51.8 °F - 37.4 °F 58% 29.85 in 10.0 mi WNW 8.1 mph - N/A   Clear
11:13 AM 53.6 °F - 37.4 °F 54% 29.85 in 10.0 mi NW 8.1 mph - N/A   Clear
11:33 AM 53.6 °F - 37.4 °F 54% 29.86 in 10.0 mi NW 5.8 mph - N/A   Clear
11:53 AM 55.4 °F - 35.6 °F 47% 29.86 in 10.0 mi WNW 5.8 mph - N/A   Clear
12:13 PM 53.6 °F - 35.6 °F 51% 29.86 in 10.0 mi NW 5.8 mph - N/A   Clear
12:33 PM 55.4 °F - 33.8 °F 44% 29.87 in 10.0 mi WNW 5.8 mph - N/A   Clear
12:53 PM 57.2 °F - 33.8 °F 41% 29.86 in 10.0 mi West 9.2 mph - N/A   Scattered Clouds
1:13 PM 57.2 °F - 32.0 °F 38% 29.87 in 10.0 mi West 11.5 mph 16.1 mph N/A   Scattered Clouds
1:33 PM 57.2 °F - 30.2 °F 36% 29.86 in 10.0 mi West 10.4 mph - N/A   Clear
1:53 PM 57.2 °F - 30.2 °F 36% 29.86 in 10.0 mi West 8.1 mph - N/A   Clear
2:13 PM 57.2 °F - 30.2 °F 36% 29.86 in 10.0 mi West 3.5 mph - N/A   Scattered Clouds
2:33 PM 57.2 °F - 30.2 °F 36% 29.87 in 10.0 mi West 5.8 mph - N/A   Scattered Clouds
2:53 PM 57.2 °F - 30.2 °F 36% 29.87 in 10.0 mi West 9.2 mph - N/A   Clear
3:13 PM 55.4 °F - 30.2 °F 38% 29.87 in 10.0 mi West 6.9 mph - N/A   Clear
3:33 PM 57.2 °F - 30.2 °F 36% 29.87 in 10.0 mi NW 8.1 mph - N/A   Clear
3:53 PM 59.0 °F - 30.2 °F 34% 29.87 in 10.0 mi WNW 5.8 mph - N/A   Clear
4:13 PM 59.0 °F - 28.4 °F 31% 29.87 in 10.0 mi WSW 3.5 mph - N/A   Scattered Clouds
4:33 PM 59.0 °F - 28.4 °F 31% 29.88 in 10.0 mi West 4.6 mph - N/A   Scattered Clouds
4:53 PM 57.2 °F - 28.4 °F 33% 29.88 in 10.0 mi West 6.9 mph - N/A   Clear
5:13 PM 57.2 °F - 28.4 °F 33% 29.88 in 10.0 mi WSW 4.6 mph - N/A   Clear
5:33 PM 57.2 °F - 28.4 °F 33% 29.88 in 10.0 mi Calm Calm - N/A   Clear
5:53 PM 55.4 °F - 30.2 °F 38% 29.89 in 10.0 mi WSW 4.6 mph - N/A   Clear
6:13 PM 53.6 °F - 30.2 °F 41% 29.89 in 10.0 mi West 3.5 mph - N/A   Clear
6:33 PM 50.0 °F - 33.8 °F 54% 29.90 in 10.0 mi Calm Calm - N/A   Clear
6:53 PM 46.4 °F - 35.6 °F 66% 29.90 in 10.0 mi Calm Calm - N/A   Clear
7:13 PM 44.6 °F - 33.8 °F 66% 29.91 in 10.0 mi Calm Calm - N/A   Clear
7:33 PM 42.8 °F - 35.6 °F 76% 29.91 in 10.0 mi Calm Calm - N/A   Clear
7:53 PM 42.8 °F - 33.8 °F 70% 29.92 in 10.0 mi Calm Calm - N/A   Clear
8:13 PM 41.0 °F - 33.8 °F 76% 29.93 in 10.0 mi Calm Calm - N/A   Clear
8:33 PM 39.2 °F - 35.6 °F 87% 29.93 in 10.0 mi Calm Calm - N/A   Clear
8:53 PM 37.4 °F - 33.8 °F 87% 29.93 in 10.0 mi Calm Calm - N/A   Clear
9:13 PM 37.4 °F - 33.8 °F 87% 29.93 in 10.0 mi Calm Calm - N/A   Clear
9:33 PM 37.4 °F - 33.8 °F 87% 29.94 in 10.0 mi Calm Calm - N/A   Clear
9:53 PM 37.4 °F - 33.8 °F 87% 29.94 in 10.0 mi Calm Calm - N/A   Clear
10:13 PM 35.6 °F - 32.0 °F 87% 29.94 in 10.0 mi Calm Calm - N/A   Clear
10:33 PM 35.6 °F - 30.2 °F 81% 29.94 in 10.0 mi Calm Calm - N/A   Clear
10:53 PM 33.8 °F - 30.2 °F 87% 29.94 in 10.0 mi Calm Calm - N/A   Clear
11:13 PM 33.8 °F - 30.2 °F 87% 29.94 in 10.0 mi Calm Calm - N/A   Clear
11:33 PM 33.8 °F - 30.2 °F 87% 29.95 in 10.0 mi Calm Calm - N/A   Clear
11:53 PM 30.2 °F - 28.4 °F 93% 29.95 in 10.0 mi Calm Calm - N/A   Clear